Precipitable_Water
0.99 0.99 0.99 1.01 1.01 0.97 0.91 0.85 0.81 0.77 0.71 0.69 0.67 0.66 0.64 0.64 0.64 0.64 0.66 0.67 0.67 0.67 0.67 0.67 0.67 0.67 0.67 0.66 0.66 0.64 0.64 0.64 0.62 0.60 0.60 0.58 0.58 0.58 0.56 0.56 0.56 0.58 0.58 0.58 0.58 0.58 0.58 0.56 0.54 0.54 0.52 0.52 0.52 0.50 0.50 0.48 0.48 0.46 0.46 0.44 0.40 0.38 0.36 0.34 0.34 0.34 0.34 0.32 0.32
0.99 0.99 0.99 1.03 1.01 0.99 0.93 0.87 0.81 0.77 0.73 0.71 0.67 0.66 0.64 0.64 0.66 0.66 0.67 0.67 0.67 0.69 0.69 0.69 0.67 0.67 0.67 0.66 0.66 0.66 0.64 0.62 0.60 0.60 0.58 0.58 0.58 0.56 0.56 0.56 0.58 0.58 0.58 0.58 0.58 0.58 0.58 0.56 0.54 0.54 0.52 0.52 0.52 0.52 0.50 0.50 0.48 0.46 0.44 0.44 0.40 0.38 0.34 0.34 0.32 0.32 0.32 0.32 0.32
1.01 0.99 0.99 1.03 1.03 0.97 0.91 0.83 0.79 0.75 0.71 0.69 0.67 0.67 0.66 0.66 0.66 0.67 0.67 0.69 0.69 0.71 0.69 0.69 0.67 0.67 0.67 0.67 0.66 0.66 0.64 0.62 0.60 0.60 0.58 0.58 0.56 0.56 0.56 0.58 0.58 0.58 0.58 0.58 0.58 0.58 0.56 0.56 0.54 0.54 0.52 0.52 0.52 0.52 0.50 0.50 0.48 0.46 0.44 0.42 0.40 0.36 0.34 0.32 0.32 0.32 0.32 0.32 0.30
1.01 0.99 0.99 1.03 1.01 0.97 0.89 0.83 0.77 0.73 0.71 0.69 0.67 0.67 0.67 0.67 0.67 0.69 0.69 0.71 0.71 0.71 0.71 0.69 0.69 0.67 0.67 0.67 0.67 0.66 0.64 0.62 0.60 0.58 0.58 0.56 0.56 0.56 0.58 0.58 0.58 0.58 0.58 0.58 0.58 0.58 0.58 0.56 0.56 0.54 0.54 0.52 0.52 0.52 0.50 0.50 0.46 0.44 0.42 0.40 0.38 0.36 0.34 0.32 0.32 0.32 0.30 0.30 0.30
0.99 0.97 0.99 1.07 1.03 0.97 0.89 0.83 0.77 0.73 0.71 0.69 0.69 0.67 0.67 0.69 0.69 0.71 0.71 0.71 0.71 0.71 0.71 0.69 0.69 0.69 0.69 0.67 0.67 0.64 0.62 0.60 0.58 0.56 0.56 0.56 0.56 0.58 0.58 0.58 0.60 0.60 0.60 0.60 0.58 0.58 0.58 0.56 0.56 0.54 0.54 0.54 0.52 0.52 0.50 0.50 0.44 0.42 0.40 0.38 0.38 0.36 0.34 0.34 0.32 0.32 0.30 0.30 0.30
0.97 0.99 1.01 1.07 1.03 0.95 0.89 0.81 0.77 0.73 0.71 0.69 0.69 0.69 0.69 0.71 0.71 0.73 0.73 0.71 0.71 0.71 0.71 0.71 0.69 0.69 0.69 0.67 0.67 0.64 0.60 0.58 0.56 0.56 0.56 0.56 0.58 0.58 0.60 0.60 0.60 0.60 0.60 0.60 0.60 0.58 0.58 0.58 0.56 0.54 0.54 0.52 0.52 0.50 0.50 0.48 0.46 0.42 0.40 0.38 0.38 0.36 0.34 0.34 0.32 0.32 0.30 0.30 0.30
0.97 0.99 1.01 1.05 1.01 0.93 0.87 0.81 0.77 0.75 0.73 0.71 0.71 0.71 0.71 0.71 0.73 0.73 0.73 0.73 0.71 0.71 0.71 0.71 0.71 0.69 0.69 0.67 0.66 0.64 0.60 0.56 0.56 0.56 0.58 0.58 0.58 0.60 0.60 0.60 0.60 0.60 0.60 0.60 0.60 0.58 0.58 0.58 0.56 0.54 0.54 0.52 0.50 0.50 0.48 0.46 0.44 0.42 0.40 0.38 0.38 0.36 0.34 0.34 0.34 0.32 0.30 0.30 0.28
0.97 0.99 0.99 1.01 0.97 0.91 0.85 0.81 0.77 0.75 0.73 0.73 0.73 0.73 0.73 0.73 0.73 0.73 0.73 0.73 0.71 0.71 0.73 0.71 0.71 0.71 0.69 0.67 0.66 0.62 0.60 0.58 0.58 0.58 0.58 0.58 0.60 0.60 0.60 0.60 0.60 0.60 0.60 0.60 0.60 0.58 0.58 0.58 0.56 0.54 0.54 0.52 0.50 0.48 0.48 0.46 0.44 0.40 0.40 0.38 0.36 0.36 0.36 0.36 0.34 0.32 0.32 0.30 0.28
0.93 0.93 0.95 0.95 0.91 0.87 0.83 0.81 0.77 0.75 0.73 0.73 0.73 0.75 0.75 0.75 0.75 0.75 0.75 0.73 0.73 0.73 0.73 0.73 0.71 0.71 0.69 0.67 0.66 0.62 0.60 0.58 0.58 0.58 0.58 0.60 0.60 0.60 0.60 0.62 0.62 0.62 0.62 0.60 0.60 0.60 0.58 0.56 0.56 0.54 0.54 0.54 0.50 0.48 0.46 0.44 0.42 0.40 0.38 0.38 0.36 0.36 0.34 0.34 0.34 0.32 0.30 0.30 0.28
0.91 0.91 0.89 0.87 0.87 0.85 0.81 0.79 0.77 0.77 0.75 0.75 0.77 0.77 0.77 0.77 0.79 0.79 0.77 0.77 0.75 0.75 0.73 0.73 0.71 0.71 0.69 0.66 0.64 0.62 0.62 0.60 0.60 0.60 0.60 0.60 0.60 0.60 0.60 0.62 0.62 0.62 0.62 0.62 0.60 0.60 0.58 0.56 0.56 0.54 0.54 0.52 0.50 0.48 0.46 0.44 0.40 0.40 0.38 0.38 0.36 0.36 0.34 0.34 0.32 0.32 0.30 0.28 0.28
0.89 0.87 0.87 0.85 0.85 0.83 0.81 0.79 0.79 0.79 0.79 0.81 0.81 0.81 0.81 0.81 0.81 0.81 0.79 0.77 0.75 0.75 0.73 0.73 0.71 0.69 0.67 0.66 0.64 0.62 0.62 0.62 0.60 0.60 0.60 0.60 0.60 0.60 0.62 0.62 0.62 0.62 0.62 0.62 0.60 0.60 0.58 0.56 0.56 0.54 0.54 0.52 0.50 0.48 0.46 0.42 0.40 0.38 0.38 0.38 0.36 0.34 0.32 0.32 0.30 0.30 0.30 0.28 0.28
0.87 0.85 0.85 0.85 0.85 0.83 0.81 0.79 0.79 0.81 0.81 0.83 0.83 0.83 0.83 0.83 0.83 0.81 0.79 0.77 0.75 0.73 0.73 0.71 0.69 0.67 0.66 0.66 0.64 0.64 0.62 0.62 0.60 0.60 0.60 0.60 0.60 0.62 0.62 0.64 0.64 0.62 0.62 0.62 0.60 0.60 0.58 0.56 0.54 0.54 0.52 0.52 0.50 0.48 0.46 0.42 0.40 0.38 0.38 0.36 0.36 0.34 0.32 0.30 0.30 0.30 0.28 0.28 0.28
0.87 0.85 0.85 0.83 0.83 0.83 0.81 0.81 0.81 0.83 0.85 0.87 0.87 0.87 0.87 0.87 0.87 0.83 0.79 0.77 0.75 0.73 0.71 0.71 0.69 0.67 0.66 0.66 0.64 0.64 0.62 0.62 0.60 0.58 0.60 0.60 0.62 0.64 0.64 0.64 0.64 0.62 0.62 0.62 0.60 0.60 0.58 0.56 0.54 0.52 0.52 0.50 0.48 0.46 0.44 0.42 0.40 0.38 0.36 0.36 0.34 0.32 0.32 0.30 0.30 0.30 0.30 0.28 0.28
0.87 0.85 0.83 0.83 0.83 0.83 0.83 0.83 0.85 0.87 0.89 0.91 0.91 0.91 0.89 0.89 0.89 0.85 0.79 0.77 0.75 0.73 0.71 0.71 0.71 0.69 0.66 0.66 0.64 0.64 0.62 0.60 0.58 0.60 0.60 0.62 0.64 0.66 0.66 0.66 0.64 0.62 0.62 0.62 0.60 0.60 0.58 0.56 0.54 0.52 0.50 0.48 0.48 0.46 0.44 0.40 0.40 0.38 0.36 0.34 0.34 0.32 0.32 0.32 0.30 0.30 0.30 0.30 0.28
0.85 0.83 0.83 0.83 0.83 0.85 0.85 0.87 0.89 0.91 0.93 0.93 0.91 0.91 0.91 0.91 0.89 0.85 0.79 0.77 0.75 0.75 0.73 0.71 0.71 0.69 0.67 0.66 0.64 0.64 0.62 0.60 0.58 0.60 0.62 0.64 0.66 0.67 0.66 0.66 0.64 0.62 0.62 0.62 0.60 0.58 0.58 0.56 0.54 0.52 0.50 0.48 0.46 0.44 0.42 0.40 0.38 0.38 0.36 0.34 0.34 0.32 0.32 0.32 0.32 0.32 0.32 0.30 0.28
0.83 0.83 0.83 0.85 0.85 0.87 0.89 0.91 0.91 0.91 0.93 0.93 0.93 0.91 0.91 0.89 0.87 0.85 0.81 0.77 0.77 0.75 0.73 0.71 0.69 0.69 0.67 0.66 0.64 0.62 0.60 0.60 0.60 0.62 0.64 0.67 0.67 0.67 0.67 0.66 0.64 0.62 0.60 0.60 0.60 0.58 0.56 0.56 0.54 0.52 0.50 0.46 0.44 0.42 0.40 0.40 0.38 0.38 0.36 0.34 0.34 0.32 0.32 0.32 0.32 0.32 0.32 0.30 0.28
0.83 0.85 0.87 0.87 0.89 0.91 0.93 0.93 0.93 0.91 0.91 0.91 0.91 0.91 0.91 0.89 0.87 0.83 0.79 0.77 0.75 0.73 0.73 0.71 0.69 0.69 0.67 0.66 0.64 0.62 0.60 0.60 0.60 0.62 0.66 0.69 0.69 0.67 0.66 0.64 0.62 0.62 0.60 0.58 0.58 0.56 0.56 0.54 0.54 0.52 0.50 0.46 0.44 0.40 0.40 0.38 0.38 0.36 0.36 0.34 0.34 0.34 0.32 0.32 0.32 0.30 0.30 0.28 0.26
0.85 0.89 0.91 0.91 0.93 0.95 0.95 0.95 0.93 0.91 0.89 0.91 0.91 0.91 0.89 0.87 0.85 0.81 0.79 0.77 0.75 0.73 0.71 0.71 0.71 0.69 0.67 0.62 0.62 0.60 0.60 0.60 0.64 0.66 0.67 0.69 0.69 0.66 0.64 0.62 0.62 0.60 0.60 0.58 0.56 0.56 0.54 0.54 0.52 0.52 0.50 0.48 0.44 0.40 0.38 0.38 0.36 0.36 0.34 0.34 0.34 0.34 0.34 0.32 0.30 0.30 0.28 0.26 0.24
0.89 0.93 0.93 0.95 0.97 0.97 0.97 0.95 0.93 0.91 0.91 0.91 0.91 0.89 0.87 0.85 0.83 0.79 0.77 0.77 0.75 0.73 0.73 0.71 0.71 0.69 0.66 0.62 0.60 0.60 0.62 0.64 0.67 0.69 0.71 0.69 0.67 0.66 0.64 0.62 0.62 0.60 0.60 0.58 0.58 0.56 0.54 0.54 0.52 0.50 0.48 0.46 0.42 0.40 0.38 0.36 0.36 0.34 0.34 0.34 0.34 0.34 0.34 0.32 0.30 0.28 0.26 0.24 0.24
0.91 0.95 0.97 0.99 0.99 0.99 0.97 0.95 0.95 0.95 0.95 0.91 0.87 0.85 0.83 0.81 0.79 0.79 0.77 0.75 0.75 0.73 0.73 0.71 0.69 0.67 0.64 0.60 0.60 0.62 0.66 0.69 0.71 0.71 0.69 0.69 0.66 0.64 0.62 0.62 0.60 0.60 0.60 0.58 0.58 0.56 0.54 0.52 0.50 0.48 0.46 0.44 0.40 0.38 0.38 0.36 0.34 0.34 0.34 0.34 0.34 0.34 0.32 0.30 0.28 0.26 0.24 0.24 0.22
0.97 0.99 1.01 1.01 1.01 1.01 0.99 0.99 0.99 0.97 0.93 0.89 0.85 0.83 0.81 0.79 0.77 0.75 0.75 0.73 0.73 0.73 0.71 0.69 0.67 0.66 0.62 0.60 0.62 0.66 0.69 0.73 0.71 0.71 0.69 0.67 0.66 0.64 0.62 0.62 0.60 0.60 0.60 0.58 0.56 0.56 0.54 0.50 0.50 0.48 0.44 0.40 0.38 0.36 0.36 0.34 0.34 0.32 0.32 0.34 0.34 0.32 0.32 0.28 0.28 0.26 0.24 0.22 0.22
1.01 1.03 1.05 1.05 1.05 1.03 1.03 1.03 1.01 0.97 0.91 0.87 0.83 0.81 0.79 0.75 0.75 0.73 0.73 0.73 0.71 0.71 0.69 0.67 0.66 0.62 0.60 0.60 0.66 0.69 0.73 0.73 0.71 0.69 0.67 0.66 0.66 0.64 0.64 0.62 0.60 0.60 0.58 0.58 0.56 0.54 0.54 0.50 0.48 0.46 0.42 0.38 0.36 0.36 0.34 0.34 0.32 0.32 0.32 0.32 0.32 0.32 0.30 0.28 0.26 0.24 0.24 0.22 0.20
1.03 1.07 1.09 1.09 1.07 1.05 1.03 0.99 0.95 0.91 0.87 0.85 0.81 0.77 0.75 0.73 0.71 0.73 0.73 0.73 0.71 0.69 0.67 0.66 0.64 0.62 0.60 0.62 0.69 0.71 0.71 0.69 0.67 0.66 0.66 0.66 0.66 0.64 0.64 0.62 0.60 0.58 0.58 0.56 0.56 0.54 0.52 0.50 0.46 0.42 0.40 0.36 0.34 0.34 0.32 0.32 0.32 0.32 0.32 0.32 0.30 0.30 0.26 0.26 0.24 0.24 0.22 0.22 0.20
1.07 1.09 1.11 1.11 1.07 1.03 0.97 0.93 0.89 0.85 0.83 0.81 0.77 0.73 0.71 0.69 0.71 0.71 0.73 0.71 0.69 0.67 0.66 0.64 0.62 0.60 0.62 0.66 0.69 0.69 0.67 0.66 0.64 0.64 0.64 0.64 0.64 0.64 0.62 0.62 0.60 0.58 0.58 0.56 0.56 0.54 0.52 0.50 0.48 0.42 0.36 0.34 0.34 0.32 0.32 0.32 0.32 0.32 0.32 0.32 0.30 0.28 0.26 0.24 0.24 0.22 0.22 0.20 0.20
1.07 1.09 1.09 1.07 1.01 0.95 0.89 0.87 0.85 0.83 0.79 0.77 0.73 0.69 0.67 0.67 0.69 0.71 0.73 0.69 0.67 0.66 0.62 0.60 0.60 0.62 0.66 0.69 0.69 0.67 0.66 0.64 0.64 0.64 0.64 0.64 0.64 0.62 0.62 0.62 0.60 0.58 0.58 0.58 0.56 0.54 0.52 0.48 0.46 0.40 0.36 0.32 0.32 0.32 0.32 0.32 0.32 0.32 0.32 0.30 0.30 0.28 0.24 0.24 0.22 0.22 0.22 0.20 0.20
1.03 1.03 1.03 0.99 0.93 0.89 0.87 0.85 0.81 0.79 0.75 0.71 0.69 0.67 0.66 0.67 0.69 0.71 0.69 0.66 0.64 0.62 0.60 0.60 0.62 0.66 0.67 0.69 0.67 0.66 0.64 0.64 0.64 0.64 0.62 0.62 0.62 0.62 0.62 0.62 0.60 0.58 0.58 0.58 0.54 0.52 0.50 0.46 0.40 0.36 0.34 0.32 0.32 0.32 0.32 0.32 0.32 0.32 0.32 0.30 0.30 0.28 0.26 0.22 0.22 0.22 0.20 0.20 0.20
0.99 0.97 0.95 0.93 0.91 0.87 0.87 0.85 0.79 0.75 0.71 0.67 0.66 0.66 0.66 0.67 0.69 0.69 0.67 0.62 0.60 0.60 0.60 0.60 0.64 0.67 0.67 0.67 0.66 0.64 0.64 0.62 0.64 0.64 0.64 0.62 0.62 0.62 0.62 0.60 0.60 0.58 0.58 0.56 0.52 0.50 0.46 0.42 0.36 0.34 0.32 0.32 0.32 0.32 0.32 0.30 0.32 0.30 0.30 0.30 0.28 0.28 0.26 0.24 0.22 0.20 0.20 0.20 0.20
0.91 0.91 0.91 0.89 0.89 0.87 0.85 0.83 0.75 0.71 0.69 0.66 0.66 0.66 0.66 0.67 0.67 0.66 0.64 0.62 0.60 0.60 0.60 0.64 0.66 0.66 0.66 0.64 0.62 0.62 0.62 0.62 0.64 0.64 0.64 0.64 0.62 0.62 0.60 0.60 0.58 0.58 0.58 0.54 0.50 0.46 0.42 0.36 0.34 0.32 0.30 0.30 0.30 0.32 0.32 0.30 0.30 0.30 0.30 0.30 0.28 0.26 0.24 0.24 0.22 0.22 0.20 0.20 0.20
0.85 0.85 0.87 0.87 0.87 0.87 0.85 0.81 0.73 0.69 0.67 0.66 0.66 0.66 0.66 0.66 0.66 0.64 0.62 0.60 0.58 0.60 0.62 0.64 0.66 0.64 0.62 0.62 0.60 0.60 0.62 0.62 0.64 0.64 0.64 0.64 0.62 0.62 0.60 0.60 0.58 0.58 0.56 0.50 0.48 0.44 0.38 0.34 0.32 0.30 0.28 0.28 0.30 0.30 0.32 0.30 0.30 0.30 0.28 0.28 0.26 0.24 0.24 0.22 0.22 0.22 0.20 0.20 0.20
0.75 0.79 0.81 0.83 0.85 0.83 0.81 0.77 0.71 0.67 0.67 0.66 0.66 0.66 0.66 0.64 0.64 0.62 0.60 0.58 0.60 0.62 0.64 0.64 0.62 0.62 0.60 0.60 0.60 0.60 0.60 0.62 0.64 0.66 0.64 0.64 0.62 0.60 0.60 0.60 0.58 0.58 0.56 0.54 0.46 0.38 0.34 0.32 0.30 0.28 0.28 0.28 0.30 0.30 0.30 0.30 0.30 0.28 0.28 0.26 0.24 0.24 0.22 0.22 0.20 0.20 0.20 0.20 0.20
0.73 0.73 0.73 0.75 0.77 0.77 0.75 0.73 0.69 0.67 0.67 0.66 0.66 0.64 0.64 0.62 0.62 0.60 0.60 0.58 0.60 0.62 0.62 0.62 0.60 0.58 0.58 0.58 0.58 0.60 0.62 0.64 0.64 0.64 0.64 0.62 0.60 0.60 0.60 0.58 0.56 0.56 0.54 0.50 0.46 0.38 0.32 0.30 0.28 0.28 0.28 0.28 0.28 0.30 0.30 0.30 0.30 0.28 0.28 0.26 0.24 0.24 0.22 0.22 0.20 0.20 0.20 0.20 0.20
0.67 0.69 0.69 0.69 0.67 0.67 0.66 0.66 0.66 0.66 0.64 0.64 0.62 0.62 0.60 0.58 0.58 0.58 0.58 0.60 0.60 0.60 0.60 0.58 0.58 0.56 0.56 0.58 0.58 0.60 0.62 0.64 0.64 0.64 0.62 0.62 0.60 0.60 0.58 0.56 0.54 0.52 0.50 0.48 0.40 0.36 0.32 0.28 0.28 0.28 0.28 0.28 0.28 0.28 0.30 0.30 0.30 0.30 0.28 0.26 0.24 0.24 0.22 0.22 0.20 0.20 0.20 0.20 0.20
0.64 0.64 0.64 0.64 0.64 0.62 0.62 0.62 0.62 0.60 0.60 0.58 0.58 0.58 0.58 0.58 0.58 0.58 0.58 0.60 0.60 0.58 0.58 0.56 0.56 0.56 0.56 0.58 0.60 0.62 0.64 0.64 0.64 0.64 0.62 0.60 0.60 0.58 0.56 0.54 0.52 0.50 0.48 0.44 0.38 0.32 0.30 0.28 0.28 0.28 0.28 0.28 0.28 0.28 0.30 0.30 0.30 0.28 0.28 0.26 0.26 0.24 0.22 0.22 0.20 0.20 0.20 0.20 0.20
0.58 0.58 0.58 0.58 0.58 0.58 0.60 0.60 0.60 0.58 0.58 0.56 0.56 0.56 0.56 0.56 0.56 0.58 0.58 0.58 0.58 0.58 0.56 0.56 0.56 0.56 0.58 0.60 0.62 0.62 0.64 0.64 0.64 0.64 0.62 0.60 0.58 0.56 0.54 0.52 0.50 0.48 0.44 0.38 0.34 0.30 0.28 0.28 0.28 0.28 0.28 0.28 0.28 0.28 0.28 0.30 0.30 0.28 0.26 0.26 0.26 0.24 0.24 0.22 0.22 0.20 0.20 0.20 0.22
0.56 0.56 0.56 0.56 0.56 0.56 0.58 0.58 0.58 0.56 0.56 0.56 0.56 0.56 0.56 0.56 0.56 0.56 0.58 0.58 0.58 0.56 0.56 0.56 0.56 0.58 0.60 0.62 0.64 0.64 0.64 0.64 0.64 0.62 0.62 0.60 0.56 0.54 0.50 0.48 0.46 0.44 0.40 0.36 0.32 0.30 0.28 0.28 0.28 0.28 0.28 0.28 0.28 0.28 0.28 0.28 0.28 0.28 0.26 0.26 0.26 0.24 0.24 0.22 0.22 0.22 0.22 0.22 0.22
0.54 0.54 0.54 0.54 0.54 0.56 0.56 0.56 0.56 0.54 0.54 0.54 0.54 0.54 0.56 0.56 0.56 0.56 0.56 0.56 0.56 0.56 0.56 0.56 0.58 0.60 0.60 0.62 0.64 0.64 0.64 0.64 0.62 0.62 0.60 0.60 0.56 0.52 0.48 0.46 0.44 0.40 0.36 0.34 0.30 0.28 0.26 0.26 0.26 0.28 0.28 0.28 0.28 0.28 0.28 0.28 0.26 0.26 0.26 0.26 0.24 0.24 0.24 0.22 0.22 0.22 0.22 0.22 0.22
0.52 0.52 0.52 0.52 0.52 0.54 0.54 0.54 0.54 0.54 0.54 0.54 0.54 0.54 0.54 0.54 0.56 0.56 0.56 0.56 0.54 0.54 0.56 0.58 0.58 0.60 0.62 0.64 0.64 0.64 0.64 0.64 0.62 0.60 0.58 0.56 0.54 0.50 0.46 0.42 0.40 0.36 0.34 0.32 0.30 0.28 0.26 0.26 0.26 0.28 0.28 0.28 0.28 0.28 0.28 0.28 0.26 0.26 0.26 0.24 0.24 0.24 0.24 0.24 0.22 0.22 0.22 0.22 0.22
0.52 0.52 0.52 0.52 0.52 0.52 0.52 0.54 0.52 0.52 0.52 0.54 0.54 0.54 0.54 0.54 0.54 0.56 0.56 0.54 0.54 0.54 0.56 0.58 0.60 0.62 0.64 0.64 0.64 0.64 0.62 0.62 0.60 0.58 0.56 0.54 0.52 0.50 0.46 0.40 0.34 0.34 0.34 0.32 0.28 0.26 0.26 0.26 0.26 0.28 0.28 0.28 0.28 0.28 0.28 0.28 0.26 0.26 0.26 0.24 0.24 0.24 0.24 0.24 0.22 0.22 0.22 0.22 0.22
0.50 0.50 0.50 0.52 0.52 0.52 0.52 0.52 0.52 0.52 0.52 0.52 0.54 0.54 0.54 0.54 0.54 0.54 0.54 0.54 0.56 0.56 0.58 0.60 0.62 0.62 0.64 0.64 0.62 0.62 0.60 0.60 0.58 0.56 0.54 0.52 0.50 0.46 0.42 0.38 0.32 0.30 0.30 0.30 0.28 0.26 0.26 0.26 0.26 0.28 0.28 0.28 0.28 0.28 0.28 0.28 0.26 0.26 0.26 0.24 0.24 0.24 0.24 0.24 0.22 0.22 0.22 0.22 0.22
0.50 0.50 0.50 0.52 0.52 0.52 0.52 0.50 0.52 0.52 0.54 0.54 0.54 0.54 0.54 0.54 0.54 0.54 0.54 0.56 0.56 0.58 0.58 0.60 0.62 0.62 0.62 0.62 0.60 0.60 0.58 0.56 0.56 0.54 0.52 0.48 0.46 0.42 0.38 0.34 0.30 0.28 0.28 0.30 0.28 0.26 0.26 0.26 0.26 0.26 0.28 0.28 0.28 0.28 0.28 0.28 0.28 0.28 0.26 0.26 0.26 0.24 0.24 0.24 0.24 0.22 0.22 0.22 0.22
0.50 0.50 0.52 0.52 0.52 0.50 0.50 0.50 0.52 0.54 0.54 0.54 0.54 0.54 0.56 0.56 0.56 0.54 0.56 0.56 0.58 0.58 0.60 0.60 0.62 0.62 0.62 0.60 0.58 0.56 0.56 0.54 0.52 0.50 0.48 0.46 0.42 0.38 0.36 0.32 0.30 0.28 0.26 0.26 0.28 0.26 0.26 0.26 0.26 0.26 0.28 0.28 0.28 0.30 0.30 0.28 0.28 0.28 0.26 0.26 0.26 0.26 0.24 0.24 0.24 0.24 0.24 0.24 0.24
Wind_Speed
15 15 14 13 14 14 15 15 15 15 15 15 15 16 16 17 17 17 17 17 17 17 17 18 18 18 18 18 18 19 19 20 20 21 22 22 23 24 24 25 25 25 26 26 27 27 28 28 29 29 29 30 30 31 32 32 32 32 32 31 31 31 31 32 32 32 33 33 34
15 15 14 14 14 14 15 15 16 16 16 16 16 16 17 17 17 17 17 17 17 17 18 18 18 18 18 18 19 19 20 20 21 22 22 23 24 24 25 25 25 26 26 27 27 28 28 29 29 29 30 30 31 31 32 32 32 32 32 31 31 31 32 32 32 32 33 34 34
16 15 15 14 14 15 15 16 16 17 17 17 17 17 17 17 17 17 17 17 18 18 18 18 18 19 19 19 20 20 21 21 22 22 23 23 24 24 25 25 25 26 27 27 28 28 29 29 30 30 30 31 31 32 32 32 32 32 31 31 31 31 32 32 32 33 33 34 35
16 16 15 15 15 16 16 17 17 17 17 17 17 17 17 17 17 17 17 18 18 18 18 19 19 19 20 20 21 21 22 22 23 23 23 24 24 25 25 25 26 26 27 28 28 29 29 30 30 31 31 31 32 32 32 32 32 32 31 31 31 31 32 32 32 33 34 35 35
17 16 16 16 16 17 17 17 17 17 18 18 18 18 17 17 17 17 18 18 18 19 19 19 20 20 20 21 21 22 22 23 23 24 24 24 25 25 25 26 26 27 28 28 29 29 30 30 31 31 31 32 32 32 32 32 32 32 32 31 31 32 32 32 33 33 34 35 36
18 17 17 17 17 18 18 18 18 18 18 18 18 18 18 18 18 18 18 18 19 19 19 20 20 21 21 22 22 23 23 23 24 24 24 25 25 25 25 26 26 27 28 29 30 30 30 31 31 32 32 32 33 33 33 33 32 32 32 31 31 32 32 33 33 34 35 36 36
18 18 18 18 18 18 18 18 18 18 18 18 18 18 18 18 18 18 18 19 19 19 20 21 21 22 22 22 23 23 23 24 24 25 25 25 25 25 26 26 27 28 29 29 30 30 31 31 32 32 32 33 33 33 33 33 33 32 32 32 32 32 33 33 34 35 36 36 37
19 19 19 19 19 19 19 19 19 19 19 19 18 18 18 18 18 18 18 19 20 20 21 21 22 22 23 23 23 23 24 24 24 25 25 25 25 26 26 26 27 28 29 29 30 31 31 32 32 32 33 33 33 33 33 33 33 32 32 32 32 33 33 34 35 36 36 37 38
19 19 19 19 19 20 20 20 20 19 19 19 19 18 18 18 18 18 19 20 20 21 22 22 23 23 23 23 23 24 24 24 24 25 25 25 25 25 26 26 27 28 29 29 30 31 31 32 32 33 33 33 33 33 33 33 33 33 32 32 33 33 34 34 35 36 37 37 38
20 20 20 20 20 20 20 20 20 20 19 19 19 18 18 18 18 19 19 20 21 22 22 23 23 23 23 24 24 24 24 24 24 25 25 25 25 25 26 27 27 28 29 30 30 31 32 32 33 33 33 33 33 33 33 33 33 33 33 33 33 33 34 35 35 36 37 38 39
20 20 20 20 20 20 20 20 20 19 19 19 18 18 18 18 19 19 20 21 22 22 23 23 23 23 24 24 24 25 25 25 25 25 25 25 26 26 26 27 28 28 29 30 31 31 32 32 33 33 33 33 34 34 33 33 33 33 33 33 33 34 34 35 35 36 37 38 39
20 20 20 20 20 20 20 20 19 19 19 18 18 18 19 19 20 20 21 21 22 23 23 24 24 24 24 24 25 25 25 25 25 26 26 26 26 26 27 27 28 29 29 30 31 32 32 32 33 33 33 34 34 34 33 33 33 33 33 33 33 34 34 35 36 37 38 39 40
20 20 20 20 20 20 20 19 19 18 18 18 18 19 20 20 21 21 21 22 22 23 24 24 24 24 24 25 25 25 25 25 26 26 26 26 27 27 27 28 28 29 30 31 31 32 32 33 33 33 34 34 34 34 33 33 33 33 33 33 34 34 35 36 37 38 39 39 40
19 20 20 20 20 20 19 19 19 18 18 18 18 19 20 21 22 22 22 22 23 23 24 24 24 24 24 25 25 25 25 25 26 26 27 27 27 27 28 28 29 29 30 31 32 32 33 33 34 34 34 34 34 34 33 33 33 33 33 34 34 35 36 37 38 38 39 40 40
20 20 20 20 20 19 19 19 18 18 18 18 18 20 21 22 23 23 23 24 24 24 24 24 25 25 25 25 24 24 25 25 26 27 27 27 28 28 29 29 30 30 31 32 32 33 34 34 34 34 34 34 34 33 33 33 33 34 34 34 35 36 36 37 38 38 39 40 40
20 21 20 20 20 19 19 19 19 18 18 18 19 20 21 22 23 24 25 25 24 24 24 25 25 25 25 25 25 25 25 26 27 27 28 28 29 29 30 30 31 31 32 32 33 34 34 34 35 34 34 34 34 33 33 33 34 34 34 35 35 36 37 37 38 38 39 40 40
21 21 21 20 20 20 20 19 19 18 18 18 19 21 22 23 24 25 26 25 25 25 25 25 25 25 25 25 25 25 26 26 27 28 28 29 30 30 31 32 32 32 33 33 34 34 35 35 35 35 35 34 34 34 33 33 34 34 35 35 36 36 37 38 38 39 39 40 40
22 22 21 21 20 20 20 20 19 19 19 20 21 23 24 24 25 25 26 26 25 25 25 25 25 25 25 25 25 25 26 27 28 29 30 30 31 32 32 32 33 33 33 34 34 35 35 35 35 35 35 35 34 34 34 34 34 35 35 35 36 37 37 38 38 39 39 40 40
22 22 21 21 21 20 20 19 20 21 22 23 23 23 23 24 25 25 25 26 26 25 25 25 25 25 25 25 25 25 26 27 29 30 31 31 32 32 33 33 33 33 34 34 35 35 35 35 35 35 35 34 34 34 34 34 34 35 35 35 36 37 37 38 38 39 39 39 40
22 22 22 21 21 20 20 20 21 23 24 24 23 22 22 23 23 24 24 24 25 25 25 25 25 25 25 25 25 26 27 29 29 30 31 32 32 33 33 33 33 34 34 35 36 36 36 35 35 35 35 34 34 33 34 34 34 35 35 36 36 37 37 38 38 39 39 39 39
23 23 23 22 21 20 20 21 23 24 25 24 23 22 22 22 22 23 23 23 23 23 24 24 24 25 25 25 26 27 28 29 30 31 31 32 32 33 33 33 34 34 35 36 36 36 36 35 35 35 35 34 33 33 34 34 34 35 35 36 36 37 37 38 38 39 39 39 39
23 23 23 23 22 22 22 23 24 24 24 23 23 22 22 22 22 22 22 22 22 23 24 24 24 24 25 26 27 28 29 30 30 31 31 32 32 33 33 34 34 35 35 36 36 36 36 36 35 35 34 34 33 34 34 34 35 35 36 36 37 37 38 38 38 39 39 39 39
24 24 24 24 23 24 24 24 24 24 23 23 23 23 23 22 22 22 22 22 23 23 24 24 24 25 25 27 28 29 29 30 30 31 32 32 33 33 34 34 35 35 36 36 36 36 36 36 35 35 34 34 34 34 34 35 35 35 36 36 37 37 38 38 38 38 39 39 39
24 24 25 25 25 24 24 24 23 23 23 23 23 23 23 23 22 22 23 23 24 24 24 24 24 25 26 27 28 29 29 30 30 31 32 32 33 33 34 35 35 36 36 36 36 36 36 36 35 35 34 34 34 34 34 35 35 36 36 36 37 38 38 38 38 38 39 39 39
24 25 25 25 25 24 23 23 23 23 24 24 23 23 23 23 23 23 23 24 24 24 24 24 25 26 27 28 28 29 29 30 31 31 32 33 33 34 34 35 36 36 36 36 36 36 36 36 35 34 34 34 34 35 35 35 36 36 36 37 37 38 38 38 39 39 39 39 39
25 25 25 25 24 24 23 23 24 24 24 24 24 24 24 24 24 24 24 24 24 24 24 25 26 27 28 28 28 29 29 30 31 32 32 33 34 34 35 35 36 36 36 36 36 36 36 36 35 34 34 34 34 35 35 36 36 36 37 37 37 38 38 38 39 39 39 39 39
24 24 24 24 24 24 24 24 24 24 24 24 24 24 24 24 24 24 25 24 24 24 25 25 26 27 28 28 29 29 30 30 31 32 33 33 34 35 35 36 36 36 36 36 36 36 36 36 35 35 35 35 35 35 35 36 36 37 37 37 38 38 38 39 39 39 39 39 39
24 24 24 23 23 24 24 24 24 24 24 24 24 24 24 24 24 25 25 24 24 25 25 26 27 28 28 28 29 29 30 31 32 33 33 34 35 35 35 36 36 36 37 36 36 36 36 35 35 35 35 35 35 36 36 36 36 37 37 37 38 38 39 39 39 39 38 38 38
24 24 23 23 23 23 23 23 24 24 24 24 24 24 24 24 24 24 25 25 25 25 26 27 27 28 28 29 29 30 31 31 32 33 34 34 35 35 36 36 36 37 37 36 36 36 36 35 35 35 35 35 36 36 36 36 37 37 37 38 38 38 39 39 39 38 38 38 38
23 23 23 23 22 22 22 22 23 23 23 24 24 24 24 24 24 24 25 25 25 26 26 27 28 28 28 29 29 30 31 32 33 34 34 35 35 36 36 36 37 37 37 36 36 36 36 35 35 35 36 36 36 36 36 37 37 37 38 38 38 39 39 39 39 38 38 38 38
23 23 23 22 22 22 21 21 22 22 23 23 23 24 24 24 24 25 25 25 26 26 27 27 28 28 28 29 30 31 32 33 34 34 35 35 36 36 37 37 37 37 37 36 36 36 36 35 35 35 36 36 36 37 37 37 37 37 38 38 39 39 39 39 39 38 38 38 38
22 22 22 22 21 21 21 21 21 22 22 23 23 23 23 24 24 24 25 25 26 27 27 27 28 28 29 29 30 31 32 33 34 35 35 36 36 37 37 37 38 38 37 36 36 36 36 36 36 36 36 36 37 37 37 38 38 38 38 39 39 39 39 39 39 39 38 38 38
21 21 21 21 21 21 21 21 21 22 22 23 23 23 23 23 24 24 25 25 26 27 27 28 28 29 29 30 31 32 33 34 35 35 36 36 37 37 37 38 38 38 37 36 36 36 36 36 36 36 36 36 37 37 38 38 38 39 39 39 39 39 39 39 39 39 39 38 38
20 20 20 20 20 21 21 22 22 22 22 22 22 23 23 23 23 24 25 26 26 27 27 28 28 29 30 31 32 33 34 35 35 36 36 37 37 37 38 38 38 37 37 36 36 36 36 36 36 36 36 37 37 38 38 38 39 39 39 40 40 40 40 40 40 39 39 39 38
20 20 20 20 21 21 22 22 22 22 22 22 22 22 23 23 23 24 25 26 26 27 27 28 29 29 30 31 32 33 34 35 36 36 37 37 37 38 38 38 38 37 37 36 36 36 36 36 36 36 36 37 37 38 38 39 39 40 40 40 40 40 40 40 40 40 39 39 38
20 20 20 21 21 22 22 22 22 22 22 22 22 22 22 23 24 24 25 26 26 27 27 28 29 30 31 32 33 34 35 36 36 36 37 37 37 38 38 38 38 37 37 37 37 37 36 37 37 37 37 37 38 38 39 39 40 40 40 41 41 41 41 41 40 40 39 39 38
20 20 21 21 22 22 22 22 22 22 22 22 22 22 23 23 24 24 25 26 26 27 28 29 30 31 32 33 34 35 36 36 36 37 37 37 37 38 38 39 38 38 37 37 37 37 37 37 37 37 37 38 38 39 39 39 40 40 41 41 41 41 41 41 41 40 40 39 39
20 21 21 21 22 22 22 22 22 22 22 22 22 22 23 23 24 25 25 26 26 27 28 29 30 31 33 34 34 35 36 36 36 37 37 37 38 38 38 39 39 38 38 37 37 37 37 37 37 37 38 38 39 39 39 40 40 40 41 41 41 41 41 41 41 40 40 39 39
20 21 21 21 22 22 22 21 21 21 22 22 22 23 23 24 24 25 25 26 27 28 29 30 31 32 33 34 35 35 36 36 36 37 37 38 38 38 38 39 39 38 38 37 37 38 38 38 38 38 38 39 39 39 40 40 41 41 41 41 42 42 42 41 41 40 40 40 39
20 21 21 21 21 21 21 21 21 21 21 22 22 23 23 24 24 25 26 26 27 28 29 31 32 33 33 34 35 35 36 36 37 37 38 38 38 38 39 39 39 39 38 38 38 38 38 38 38 38 39 39 40 40 40 41 41 41 42 42 42 42 42 42 41 41 40 40 40
20 20 20 20 20 20 20 20 20 21 21 22 22 23 23 24 24 25 26 27 28 29 30 31 32 33 34 34 35 35 36 37 37 38 38 38 39 39 39 39 39 39 39 39 38 38 39 39 39 39 39 40 40 40 41 41 42 42 42 42 42 42 42 42 42 41 41 40 40
Wind_Direction
251 255 259 262 265 268 270 271 271 271 270 269 269 270 271 273 274 275 276 277 278 280 283 285 287 289 289 290 292 295 297 299 301 302 304 305 306 307 307 307 308 309 310 311 312 313 313 314 315 316 318 318 319 320 321 322 322 322 321 320 320 319 319 318 318 318 318 318 318
253 255 259 262 265 268 271 272 272 271 270 270 270 271 272 273 274 276 276 277 279 281 283 286 287 289 290 291 292 295 297 299 300 301 303 304 305 305 305 306 307 308 309 310 311 312 313 313 314 316 317 318 319 320 321 322 322 321 320 319 319 318 318 318 318 318 318 318 318
254 256 258 261 264 268 270 272 272 271 270 270 271 272 273 274 275 276 277 277 279 281 283 286 288 289 290 291 293 295 296 298 299 300 302 303 303 303 304 305 306 307 308 310 311 311 312 313 314 315 317 318 319 320 320 321 321 321 320 318 318 318 318 317 318 318 318 319 319
255 256 259 262 264 266 268 271 270 270 270 271 272 272 274 275 276 277 277 278 279 281 283 286 288 289 290 291 293 294 296 297 298 299 301 302 302 302 303 304 305 307 308 309 310 311 312 312 314 315 316 317 318 319 320 320 321 320 319 318 317 317 317 317 317 318 318 319 319
256 258 261 264 264 266 268 269 269 269 270 271 272 273 274 275 276 276 277 278 279 281 283 285 288 289 290 291 292 294 296 296 297 299 300 301 301 302 303 304 305 307 308 309 310 310 311 312 313 315 316 317 318 319 319 320 319 319 318 317 317 317 317 317 318 318 319 319 319
258 259 262 265 265 266 268 269 268 269 270 272 272 273 273 274 275 275 276 278 280 282 283 285 287 289 289 291 292 294 295 296 296 298 299 300 301 302 303 304 305 307 308 309 309 310 311 312 313 314 315 316 317 318 319 319 319 318 317 316 316 317 317 317 318 319 319 319 319
259 261 263 265 265 266 267 268 269 269 270 272 271 271 271 272 273 274 277 280 282 283 283 285 286 288 289 290 292 293 294 295 296 297 298 300 301 302 303 305 306 308 309 309 309 310 310 311 313 313 314 315 317 318 318 318 318 317 316 316 316 316 317 318 318 319 319 319 318
260 261 263 265 265 266 267 268 268 269 270 271 270 269 270 271 273 275 278 281 282 283 283 284 285 286 287 289 291 292 292 293 295 296 298 299 300 302 303 306 307 309 310 310 310 310 310 311 312 313 314 315 316 317 317 317 317 316 315 315 315 316 317 318 318 318 318 318 318
260 262 264 266 267 267 267 268 268 268 269 269 268 268 269 270 273 276 278 280 281 281 282 283 283 284 286 288 289 290 291 292 294 296 297 298 300 302 304 307 309 310 311 311 311 310 311 311 312 313 313 315 316 316 316 316 315 315 315 315 315 316 317 318 318 318 318 318 318
261 263 265 267 267 267 268 268 268 267 267 268 267 268 269 271 273 276 278 280 280 280 280 281 282 283 285 286 288 289 291 292 294 295 297 298 300 303 305 308 310 311 312 312 311 311 311 312 312 312 313 314 315 315 315 315 315 314 314 315 316 316 317 317 317 318 317 318 318
262 263 265 267 267 267 267 267 267 267 267 267 268 268 270 272 274 276 277 278 278 278 278 280 281 282 284 286 288 290 291 293 295 296 297 298 301 303 306 309 310 311 312 312 312 312 312 312 312 312 312 313 314 314 314 314 314 314 314 315 316 316 316 317 317 317 317 317 318
262 264 265 266 266 265 265 265 265 266 266 268 269 270 272 274 275 276 277 276 276 277 277 278 279 281 283 285 287 290 292 294 295 296 297 299 302 305 307 309 310 311 311 311 312 312 312 312 311 311 311 312 313 314 314 313 313 314 314 315 315 316 316 316 316 317 317 317 317
262 263 264 265 264 264 263 264 265 265 266 267 269 272 274 277 278 278 278 277 276 277 277 277 278 280 282 285 287 290 293 294 296 297 298 300 303 306 308 309 310 310 311 311 312 312 312 312 311 311 311 311 312 313 313 313 313 313 314 314 315 315 315 315 316 316 317 317 317
262 262 263 263 263 263 263 263 263 264 264 266 269 273 276 278 278 278 277 277 276 276 277 277 278 279 282 284 287 290 293 295 296 297 299 301 304 307 308 309 310 310 311 312 312 312 312 311 311 311 311 311 311 312 312 313 313 313 313 314 314 314 315 315 315 316 316 317 317
261 261 262 262 262 262 261 260 261 261 263 266 270 273 275 276 276 276 276 276 276 276 276 277 278 280 282 286 289 291 294 296 297 298 299 301 304 307 308 309 310 310 311 312 312 312 311 311 310 310 310 311 311 311 312 312 313 313 313 313 314 314 314 315 315 315 316 316 317
261 261 261 261 260 260 259 258 259 260 262 266 271 273 274 272 272 272 273 274 275 275 276 277 279 282 285 289 291 293 294 296 297 298 300 301 304 306 308 309 310 311 311 312 312 312 311 310 310 310 310 310 311 311 311 312 312 313 313 313 313 313 314 314 315 315 315 316 316
260 260 260 260 259 258 258 258 259 260 262 266 271 274 273 270 269 269 271 272 274 275 276 278 281 285 289 291 292 294 295 296 297 298 300 301 303 305 307 309 310 310 311 311 311 311 310 310 309 309 310 311 311 311 311 311 312 312 312 313 313 313 313 314 314 315 315 316 316
260 260 260 259 258 257 258 259 261 264 266 269 272 274 273 270 268 268 269 270 272 274 276 280 284 287 290 291 292 293 294 296 297 298 299 300 302 304 306 307 309 310 310 311 311 310 310 309 309 309 310 311 311 311 311 311 311 312 312 312 312 312 313 313 314 314 315 315 315
260 260 260 259 259 258 258 260 264 268 272 274 275 274 272 270 268 267 268 270 272 275 279 283 286 287 288 289 290 292 294 295 296 297 298 299 301 302 304 306 308 309 310 311 310 310 309 308 309 310 311 311 312 311 311 311 311 311 311 311 312 312 312 313 313 314 315 315 315
262 262 261 261 260 260 260 262 266 271 275 277 276 275 273 271 269 268 269 271 274 278 281 283 285 286 286 287 289 291 293 295 296 297 298 299 300 302 304 306 308 309 310 310 310 309 308 308 309 310 311 312 311 311 310 310 310 310 311 311 311 311 312 312 313 314 314 314 315
264 265 265 264 262 262 263 266 270 273 275 276 275 274 273 271 270 270 271 273 276 279 281 283 284 285 285 287 289 291 294 296 297 298 299 300 301 302 304 306 308 309 310 310 309 308 308 308 310 311 312 312 311 310 310 310 310 310 310 310 310 311 311 312 313 313 314 314 314
267 268 268 266 265 265 267 270 273 274 275 274 274 273 272 271 270 271 272 275 277 280 281 282 283 284 286 288 290 292 294 296 298 299 300 301 302 303 305 306 308 309 309 309 308 308 308 309 310 311 312 311 310 310 309 309 309 309 309 309 310 310 311 312 312 313 313 313 314
270 270 270 268 267 268 271 274 275 275 274 273 273 272 272 271 271 272 275 278 280 281 282 283 284 285 288 290 292 294 295 297 299 300 301 302 303 304 305 307 308 308 308 308 308 308 309 310 311 312 311 311 310 309 308 308 308 308 309 309 309 310 311 311 312 312 313 313 313
271 272 271 270 270 271 273 275 275 275 273 272 272 271 271 270 271 274 277 280 282 282 283 284 285 288 290 292 294 295 296 298 299 300 301 302 303 304 305 307 308 308 308 308 308 308 310 311 312 312 311 310 309 308 308 307 308 308 308 309 309 310 310 311 311 312 312 312 313
273 273 272 271 271 271 273 273 273 273 272 271 271 270 270 270 272 276 279 281 282 283 284 285 287 290 292 294 295 296 297 298 299 299 300 301 303 304 306 307 308 308 308 308 308 309 310 311 312 311 310 309 308 308 307 307 307 307 308 308 309 309 310 310 310 311 311 312 312
273 273 272 271 270 270 271 271 272 272 271 271 270 270 270 271 275 277 279 281 282 283 284 286 289 291 293 294 295 296 297 298 299 300 300 301 303 304 306 307 307 307 307 308 309 310 311 312 311 311 310 308 308 307 307 307 307 307 307 307 308 308 309 309 310 310 311 311 312
271 271 271 270 270 270 270 270 271 271 270 270 269 270 271 274 277 278 279 280 281 283 285 288 290 292 294 294 295 296 297 298 299 300 301 302 304 305 306 307 307 307 307 308 309 310 311 311 311 309 308 307 307 306 306 307 307 307 307 307 307 308 308 308 309 309 310 311 311
269 268 268 269 269 269 270 270 270 270 269 269 269 271 273 275 277 278 278 280 281 284 286 289 291 293 294 295 295 296 297 298 299 301 302 303 304 305 306 306 307 307 308 309 310 310 311 310 309 308 307 306 306 306 306 306 306 306 307 307 307 307 308 308 309 309 310 310 311
266 266 267 267 268 269 269 269 269 268 268 269 270 272 274 275 276 277 278 280 282 285 288 290 292 293 294 295 296 297 297 298 300 302 303 304 305 306 306 306 307 308 308 309 310 310 310 309 308 307 306 306 306 306 306 306 306 306 306 307 307 307 307 308 308 309 309 310 310
266 266 267 268 268 268 268 268 268 268 268 270 271 273 274 275 275 277 278 281 283 286 289 291 293 293 294 295 296 297 298 299 301 303 304 305 305 306 306 306 307 308 309 309 310 309 309 308 307 306 305 305 305 305 306 306 306 306 306 306 307 307 307 307 308 308 309 309 310
268 268 269 270 270 269 269 268 267 268 269 270 272 273 274 274 276 277 280 282 285 287 290 291 292 293 294 295 296 297 299 301 303 304 305 305 305 306 306 307 307 308 309 309 309 309 308 307 306 305 305 305 304 305 305 305 305 306 306 306 306 306 306 307 307 307 308 308 309
270 270 271 271 271 271 270 270 269 269 270 271 272 273 274 275 277 279 281 284 286 288 290 291 292 292 293 295 296 298 300 302 303 304 305 305 305 306 306 307 307 308 309 309 309 308 307 306 305 305 304 304 304 304 304 305 305 305 305 305 305 306 306 307 307 307 307 307 308
271 272 272 272 272 272 272 271 271 271 272 272 273 274 275 276 278 280 283 285 287 288 289 290 291 292 293 295 297 299 301 303 304 304 305 305 305 306 306 307 308 308 308 308 308 307 307 306 305 304 304 304 304 304 304 304 305 305 305 305 305 305 305 306 306 307 307 307 307
273 273 273 273 273 273 273 273 273 272 273 273 274 274 276 277 280 282 284 286 287 288 289 290 291 293 294 296 298 300 302 303 304 305 305 305 306 306 307 307 308 308 308 308 307 307 306 305 304 304 303 303 303 303 303 304 304 304 305 305 305 305 305 305 305 306 306 306 306
274 274 274 274 274 274 274 274 273 273 273 273 274 275 276 278 281 283 285 286 287 288 289 291 292 294 295 297 299 301 302 304 304 305 305 305 306 306 307 307 308 308 308 307 307 306 305 305 304 304 303 303 303 303 303 303 304 304 304 304 305 305 305 305 305 305 305 305 305
275 275 275 275 275 275 274 274 273 273 273 273 274 276 277 280 282 284 285 286 287 289 290 291 293 295 296 298 300 302 303 304 305 305 305 306 306 306 306 307 307 308 307 307 306 306 305 304 304 303 303 303 303 303 303 303 304 304 304 304 304 304 305 305 305 305 304 304 304
277 277 276 276 276 275 275 274 273 273 273 274 275 277 279 281 283 284 286 287 288 289 291 293 294 296 298 300 301 303 304 304 305 305 305 306 306 306 306 307 307 307 307 306 306 305 305 304 303 303 303 302 302 303 303 304 304 304 304 304 304 304 304 304 304 304 304 303 303
279 278 278 277 276 276 275 274 274 273 274 275 277 278 280 282 284 285 287 287 289 291 292 294 296 297 299 301 302 303 304 305 305 305 305 305 306 306 307 307 307 307 307 306 305 305 304 303 303 302 302 302 302 302 303 304 304 304 305 305 305 305 304 304 304 304 303 303 302
279 279 278 277 277 276 275 274 274 274 276 277 279 280 281 283 285 287 288 289 290 292 294 295 297 299 300 302 303 304 305 305 305 305 305 305 306 306 307 307 307 307 306 306 305 304 304 303 302 302 301 302 302 303 303 304 304 304 305 305 305 305 304 304 304 304 303 302 302
280 280 279 278 278 277 276 275 276 277 279 280 281 281 283 284 287 288 289 290 292 294 295 297 299 300 302 303 304 304 305 305 305 305 305 306 306 306 306 306 306 306 306 305 305 304 304 303 302 301 301 302 302 302 303 304 304 304 304 305 305 305 304 304 304 303 303 302 302
282 281 280 280 279 278 278 278 279 280 281 282 282 283 285 287 288 289 290 292 293 295 297 299 300 301 303 303 304 305 305 305 305 305 306 306 306 306 306 306 306 306 306 305 304 304 303 303 302 301 301 301 302 302 303 304 304 304 304 304 304 304 304 304 304 303 303 302 302